This demonstration page uses our WeatherBlox Daily Observations layout. Learn more.

Left ArrowRight Arrow

38.83388, -104.82136

Hourly Observations for January 7, 2017

Temp ( °F °C ) Dew Point ( °F °C ) Humidity (%) Winds ( mph kmh ) Pressure ( in mb ) Visibility ( mi km ) Precip ( " mm )
12:58 am 00:58 Clear 16 -8.9 3 -16.2 56 56 NW 3 6 30.08 1019 10 16 0.00 0.00
1:58 am 01:58 Mostly Clear 16 -9 3 -16 57 57 WNW 6 9 30.09 1019 10 16 0.00 0.00
2:58 am 02:58 Mostly Cloudy 18 -7.8 0 -18 44 44 Calm 30.10 1019 10 16 0.00 0.00
3:58 am 03:58 Mostly Cloudy 17 -8.2 -1 -18.4 44 44 Calm 30.11 1020 10 16 0.00 0.00
4:58 am 04:58 Mostly Cloudy 17 -8.2 4 -15.3 57 57 NNW 7 11 30.10 1019 10 16 0.00 0.00
5:58 am 05:58 Cloudy 20 -6.4 0 -17.8 40 40 Calm 30.12 1020 10 16 0.00 0.00
6:58 am 06:58 Clear 19 -7.2 2 -16.7 47 47 Calm 30.14 1021 10 16 0.00 0.00
7:58 am 07:58 Sunny 22 -5.6 -3 -19.6 33 33 S 3 6 30.16 1021 10 16 0.00 0.00
8:58 am 08:58 Sunny 24 -4.7 1 -17.1 38 38 SSE 5 7 30.16 1021 10 16 0.00 0.00
9:58 am 09:58 Sunny 24 -4.3 8 -13.3 50 50 ESE 5 7 30.17 1022 10 16 0.02 0.51
10:58 am 10:58 Sunny 26 -3.4 8 -13.3 47 47 E 5 7 30.14 1021 10 16 0.00 0.00
11:58 am 11:58 Mostly Cloudy 26 -3.5 8 -13.4 47 47 Calm 30.11 1020 10 16 0.00 0.00
12:58 pm 12:58 Sunny 25 -3.9 8 -13.5 48 48 ESE 5 7 30.09 1019 10 16 0.00 0.00
1:58 pm 13:58 Sunny 26 -3.6 4 -15.7 39 39 ESE 3 6 30.09 1019 10 16 0.00 0.00
2:58 pm 14:58 Mostly Sunny 23 -4.8 3 -16.1 41 41 Calm 30.09 1019 10 16 0.00 0.00
3:58 pm 15:58 Sunny 20 -6.7 11 -11.9 67 67 Calm 30.12 1020 10 16 0.00 0.00
4:58 pm 16:58 Clear 20 -6.7 8 -13.2 60 60 Calm 30.12 1020 10 16 0.00 0.00
5:58 pm 17:58 Clear 19 -7.5 3 -16.1 51 51 WNW 3 6 30.09 1019 10 16 0.00 0.00
6:58 pm 18:58 Clear 18 -7.8 3 -16 52 52 Calm 30.10 1019 10 16 0.00 0.00
7:58 pm 19:58 Clear 18 -7.8 6 -14.4 59 59 WNW 3 6 30.07 1018 10 16 0.00 0.00
8:58 pm 20:58 Clear 18 -8 7 -13.9 63 63 Calm 30.02 1017 10 16 0.00 0.00
9:58 pm 21:58 Clear 16 -8.9 5 -14.8 63 63 W 3 6 30.01 1016 10 16 0.00 0.00
10:58 pm 22:58 Clear 16 -8.8 7 -14 66 66 NE 3 6 29.95 1014 10 16 0.00 0.00
11:58 pm 23:58 Clear 20 -6.9 8 -13.5 60 60 NNW 6 9 29.92 1013 10 16 0.00 0.00

Powered by AerisWeather